Location: Bartshausen
(51.8454°N, 9.8167°E)
Time: 11:04:15
(UTC+00:00)

Iridium 4 Rocket - Pass Details

Date: 18 February 2026
Orbit: 579 x 887 km, 86.9° (Epoch: 8 March)

Event Time Altitude Azimuth Distance (km) Brightness Sun altitude
Rises 18:12:10 0° 3° (N) 3,075 6.6 -14.8°
Reaches altitude 10° 18:14:48 10° 14° (NNE) 2,101 5.6 -15.2°
Maximum altitude 18:18:48 29° 75° (ENE) 1,179 3.9 -15.8°
Enters shadow 18:19:13 28° 85° (E) 1,186 3.9 -15.8°
